Retour au catalogue

UWE-3

ActifRadio amateurSSO
NORAD 39446·PAYLOAD·🇩🇪 Germany

Lancé Nov 21, 2013 depuis Dombarovsky

Loading…

Prochains Passages (prochaines 24 heures)

TLE

FraisSource: Space-Track

Époque: Sep 14, 2026, 07:09 UTC

1 39446U 13066AG  26257.29854036  .00004110  00000-0  34884-3 0  9997
2 39446  97.8798 214.0443 0049177  24.7230 335.6333 14.97547557690915

Suivez UWE-3 en temps réel avec AllMySat

Download on the App Store